FW1198 Weather Reports


Display with metric or nautical units.
time (UTC)temp
F
wind
direction
speed
MPH
gust
MPH
rain 1hr
in
rain 24hr
in
rain mn
in
humidity
%
barometer
mb
20260505214604 60 281 0.0 3.0 0.00 0.00 0.00 71 1015.8
20260505213051 60 107 1.0 3.0 0.00 0.00 0.00 72 1016.0
20260505211611 60 0 1.0 5.0 0.00 0.00 0.00 72 1016.0
20260505210043 60 182 0.0 3.0 0.00 0.00 0.00 72 1016.0
20260505204549 60 0 0.0 3.0 0.00 0.00 0.00 72 1015.9
20260505203045 60 296 0.0 2.0 0.00 0.00 0.00 72 1015.9
20260505201602 59 316 2.0 5.0 0.00 0.00 0.00 72 1015.9
20260505200058 59 217 1.0 5.0 0.00 0.00 0.00 71 1016.2
20260505194600 60 204 1.0 4.0 0.00 0.00 0.00 71 1016.2
20260505193049 59 133 0.0 5.0 0.00 0.00 0.00 72 1016.4
20260505191553 59 225 1.0 3.0 0.00 0.00 0.00 71 1016.2
20260505190051 58 198 2.0 4.0 0.00 0.00 0.00 72 1016.2
20260505184545 58 35 2.0 5.0 0.00 0.00 0.00 73 1016.2
20260505183048 57 9 1.0 7.0 0.00 0.00 0.00 72 1016.2
20260505181541 57 14 1.0 6.0 0.00 0.00 0.00 72 1016.1
20260505180050 57 0 1.0 7.0 0.00 0.00 0.00 71 1016.1
20260505174548 57 313 1.0 4.0 0.00 0.00 0.00 71 1016.0
20260505173050 57 322 1.0 4.0 0.00 0.00 0.00 71 1015.7
20260505171551 57 0 1.0 4.0 0.00 0.00 0.00 71 1015.6
20260505170049 56 34 0.0 3.0 0.00 0.00 0.00 72 1015.7
20260505164549 57 0 0.0 2.0 0.00 0.00 0.00 72 1015.6
20260505163044 56 0 0.0 3.0 0.00 0.00 0.00 73 1015.5
20260505161554 56 0 0.0 3.0 0.00 0.00 0.00 74 1015.5
20260505153052 55 0 0.0 1.0 0.00 0.00 0.00 75 1015.3
20260505151549 54 0 0.0 2.0 0.00 0.00 0.00 76 1015.2
20260505124558 53 0 0.0 0.0 0.00 0.00 0.00 78 1014.6
20260505123046 53 0 0.0 0.0 0.00 0.00 0.00 78 1014.6
20260505121544 53 0 0.0 0.0 0.00 0.00 0.00 78 1014.7
20260505120049 53 0 0.0 2.0 0.00 0.00 0.00 78 1014.9
20260505114549 53 304 1.0 3.0 0.00 0.00 0.00 77 1014.9
20260505113048 53 0 0.0 3.0 0.00 0.00 0.00 77 1015.0
20260505111547 53 338 1.0 3.0 0.00 0.00 0.00 76 1014.9
20260505101546 54 313 0.0 5.0 0.00 0.00 0.00 74 1014.8
20260505100044 54 307 1.0 4.0 0.00 0.00 0.00 74 1015.0
20260505094548 54 269 1.0 4.0 0.00 0.00 0.00 74 1015.0
20260505093044 54 312 2.0 7.0 0.00 0.00 0.00 73 1015.2
20260505091542 54 303 2.0 7.0 0.00 0.00 0.00 71 1015.0
20260505090050 54 275 5.0 12.0 0.00 0.00 0.00 70 1015.3
20260505084549 54 306 5.0 10.0 0.00 0.00 0.00 70 1015.4
20260505083045 54 275 5.0 11.0 0.00 0.00 0.00 69 1015.7
20260505081544 54 303 8.0 14.0 0.00 0.00 0.00 70 1015.6
20260505080055 55 311 5.0 10.0 0.00 0.00 0.00 73 1015.7
20260505074549 55 301 3.0 8.0 0.00 0.00 0.00 75 1015.6
20260505073052 55 308 3.0 8.0 0.00 0.00 0.00 75 1015.6
20260505071548 55 313 4.0 9.0 0.00 0.00 0.00 76 1015.5
20260505070055 55 279 3.0 5.0 0.00 0.00 0.00 79 1015.2
20260505064550 55 309 2.0 5.0 0.00 0.00 0.00 79 1015.2
20260505063107 55 281 1.0 3.0 0.00 0.00 0.00 78 1015.2
20260505061543 55 300 2.0 6.0 0.00 0.00 0.00 77 1015.0
20260505060048 56 290 2.0 5.0 0.00 0.00 0.00 77 1014.9
20260505054554 56 0 1.0 5.0 0.00 0.00 0.00 76 1015.1
20260505053058 56 305 3.0 11.0 0.00 0.00 0.00 76 1015.3
20260505051543 56 280 3.0 10.0 0.00 0.00 0.00 75 1015.6
20260505041553 57 321 4.0 11.0 0.00 0.00 0.00 72 1015.1
20260505040055 58 321 3.0 11.0 0.00 0.00 0.00 70 1014.9
20260505034545 58 290 4.0 9.0 0.00 0.00 0.00 68 1014.6
20260505033044 59 341 3.0 7.0 0.00 0.00 0.00 67 1014.2
20260505031553 59 311 2.0 8.0 0.00 0.00 0.00 65 1014.0
20260505030043 59 294 3.0 10.0 0.00 0.00 0.00 65 1014.1
20260505024556 59 360 3.0 9.0 0.00 0.00 0.00 64 1014.2
20260505023041 60 11 4.0 11.0 0.00 0.00 0.00 62 1014.0
20260505021553 60 321 5.0 11.0 0.00 0.00 0.00 62 1013.9
20260505020046 60 352 2.0 12.0 0.00 0.00 0.00 63 1013.9
20260505014601 61 352 4.0 11.0 0.00 0.00 0.00 62 1013.9
20260505013042 61 343 2.0 13.0 0.00 0.00 0.00 63 1013.9
20260505011552 61 326 6.0 10.0 0.00 0.00 0.00 64 1014.1
20260505010042 61 326 5.0 12.0 0.00 0.00 0.00 63 1014.3
20260505004544 61 330 4.0 10.0 0.00 0.00 0.00 65 1014.4
20260505003043 61 319 6.0 11.0 0.00 0.00 0.00 65 1014.4
20260505001542 62 298 5.0 11.0 0.00 0.00 0.00 65 1014.4
20260504234550 60 290 8.0 12.0 0.00 0.00 0.00 68 1014.3
20260504233104 61 302 5.0 13.0 0.00 0.00 0.00 67 1014.4
20260504231544 62 352 6.0 11.0 0.00 0.00 0.00 63 1014.3
20260504230046 63 323 3.0 11.0 0.00 0.00 0.00 63 1014.3
20260504224545 64 0 1.0 5.0 0.00 0.00 0.00 59 1014.2
20260504223100 63 0 0.0 5.0 0.00 0.00 0.00 60 1014.3
20260504221544 63 185 2.0 6.0 0.00 0.00 0.00 59 1014.4
20260504220045 63 284 3.0 10.0 0.00 0.00 0.00 61 1014.6